Regional Weather Roundup
Issued by NWS Charleston, WV

Home | Current Version | Previous Version | Text Only | Print | Product List | Glossary Off
Versions: 1 2 3 4 5 6 7 8 9 10 11 12 13 14 15 16 17 18 19 20 21 22 23 24 25 26 27

000
ASUS41 KRLX 221110
RWRRLX
West Virginia Regional Weather Roundup
National Weather Service Charleston WV
600 AM EST THU FEB 22 2018

Note: "fair" indicates few or no clouds below 12,000 feet with no
significant weather and/or obstructions to visibility.

WVZ003-221200-
Northern Panhandle of West Virginia

CITY           SKY/WX    TMP DP  RH WIND       PRES   REMARKS
WHEELING       RAIN      37  35  92 NE9       30.46R FOG
$$

WVZ009-221200-
Northwest West Virginia

CITY           SKY/WX    TMP DP  RH WIND       PRES   REMARKS
PARKERSBURG    LGT RAIN  43  40  89 NE8       30.39F
$$

WVZ006-221200-
Western West Virginia

CITY           SKY/WX    TMP DP  RH WIND       PRES   REMARKS
HUNTINGTON     CLOUDY    45  43  93 NE7       30.32F FOG
$$

WVZ015-221200-
West Central West Virginia

CITY           SKY/WX    TMP DP  RH WIND       PRES   REMARKS
CHARLESTON     FOG       49  49 100 N3        30.31S VSB 1/2
$$

WVZ022-031-221200-
North Central West Virginia

CITY           SKY/WX    TMP DP  RH WIND       PRES   REMARKS
CLARKSBURG     CLOUDY    44  42  93 N10       30.34F
MORGANTOWN     CLOUDY    43  41  93 N9        30.36F
$$

WVZ025-035-042-045-221200-
Southern West Virginia

CITY           SKY/WX    TMP DP  RH WIND       PRES   REMARKS
BECKLEY        FAIR      61  56  83 SE12      30.34R
LOGAN          FOG       54  54 100 CALM      30.30R VSB<1/4
BLUEFIELD      FAIR      61  54  77 VRB6      30.37R
LEWISBURG      FOG       50  49  99 CALM      30.38R VSB 1/4
$$

WVZ047-221200-
Northern Mountains of West Virginia

CITY           SKY/WX    TMP DP  RH WIND       PRES   REMARKS
ELKINS         FOG       53  52  96 CALM      30.35R VSB 1/2
$$

WVZ052-221200-
Eastern Panhandle of West Virginia

CITY           SKY/WX    TMP DP  RH WIND       PRES   REMARKS
MARTINSBURG    CLOUDY    48  34  58 N9        30.47R
PETERSBURG     DRIZZLE   52  51  95 CALM      30.43R
$$




USA.gov is the U.S. government's official web portal to all federal, state and local government web resources and services.